• în România
  • Lista ţărilor
  • Pe 7 zile
  • Temperatura apei
  • Hartă satelitară
  • Meteo pe hartă
  • Widget-uri
  • user-avatar
    Intrare

    Meteo pe oră la Wiktoria

    Astăzi, 18 Octombrie, Miercuri

    Timp Temperatura Precipitaţii Vânt Presiune Umiditate
    00:00 +14°C° 0 mm 3 m/s 755 mmHg 71%
    01:00 +13°C° 0 mm 3 m/s 755 mmHg 72%
    02:00 +14°C° 0 mm 3 m/s 755 mmHg 71%
    03:00 +14°C° 0 mm 4 m/s 755 mmHg 71%
    04:00 +13°C° 0 mm 3 m/s 754 mmHg 73%
    05:00 +14°C° 0 mm 4 m/s 755 mmHg 73%
    06:00 +15°C° 0 mm 4 m/s 755 mmHg 74%
    07:00 +15°C° 0 mm 5 m/s 755 mmHg 75%
    08:00 +17°C° 0 mm 5 m/s 755 mmHg 71%
    09:00 +21°C° 0 mm 5 m/s 755 mmHg 67%
    10:00 +23°C° 0 mm 6 m/s 755 mmHg 62%
    11:00 +26°C° 0 mm 5 m/s 755 mmHg 59%
    12:00 +27°C° 0 mm 5 m/s 754 mmHg 56%
    13:00 +29°C° 0 mm 4 m/s 753 mmHg 52%
    14:00 +29°C° 0 mm 4 m/s 753 mmHg 53%
    15:00 +29°C° 0 mm 4 m/s 753 mmHg 54%
    16:00 +29°C° 0 mm 4 m/s 752 mmHg 57%
    17:00 +27°C° 0 mm 4 m/s 752 mmHg 59%
    18:00 +25°C° 0 mm 4 m/s 752 mmHg 61%
    19:00 +22°C° 0 mm 4 m/s 752 mmHg 62%
    20:00 +21°C° 0 mm 4 m/s 752 mmHg 62%
    21:00 +20°C° 0 mm 4 m/s 752 mmHg 62%
    22:00 +19°C° 0 mm 4 m/s 753 mmHg 62%
    23:00 +20°C° 0 mm 4 m/s 752 mmHg 59%

    Mâine, 19 Octombrie, Joi

    Timp Temperatura Precipitaţii Vânt Presiune Umiditate
    00:00 +20°C° 0 mm 4 m/s 752 mmHg 57%
    01:00 +21°C° 0 mm 4 m/s 752 mmHg 54%
    02:00 +20°C° 0 mm 4 m/s 752 mmHg 56%
    03:00 +20°C° 0 mm 4 m/s 752 mmHg 58%
    04:00 +20°C° 0 mm 4 m/s 752 mmHg 60%
    05:00 +19°C° 0,4 mm 4 m/s 752 mmHg 67%
    06:00 +18°C° 0,4 mm 4 m/s 752 mmHg 74%
    07:00 +18°C° 0,4 mm 4 m/s 752 mmHg 82%
    08:00 +18°C° 1,5 mm 4 m/s 752 mmHg 85%
    09:00 +19°C° 1,5 mm 4 m/s 752 mmHg 89%
    10:00 +20°C° 1,5 mm 4 m/s 752 mmHg 92%
    11:00 +20°C° 1,4 mm 4 m/s 752 mmHg 92%
    12:00 +21°C° 1,4 mm 4 m/s 752 mmHg 92%
    13:00 +22°C° 1,4 mm 4 m/s 751 mmHg 92%
    14:00 +22°C° 1,3 mm 4 m/s 751 mmHg 92%
    15:00 +23°C° 1,3 mm 4 m/s 751 mmHg 91%
    16:00 +23°C° 1,3 mm 4 m/s 751 mmHg 90%
    17:00 +22°C° 1 mm 4 m/s 751 mmHg 92%
    18:00 +21°C° 1 mm 3 m/s 751 mmHg 93%
    19:00 +20°C° 1 mm 3 m/s 751 mmHg 94%
    20:00 +19°C° 0,1 mm 3 m/s 752 mmHg 94%
    21:00 +17°C° 0,1 mm 4 m/s 753 mmHg 93%
    22:00 +15°C° 0,1 mm 4 m/s 753 mmHg 93%
    23:00 +14°C° 0 mm 4 m/s 753 mmHg 92%

    Poimâine, 20 Octombrie, Vineri

    Timp Temperatura Precipitaţii Vânt Presiune Umiditate
    00:00 +13°C° 0 mm 5 m/s 754 mmHg 91%
    01:00 +12°C° 0 mm 5 m/s 754 mmHg 90%
    02:00 +10°C° 0 mm 5 m/s 754 mmHg 90%
    03:00 +9°C° 0 mm 5 m/s 754 mmHg 89%
    04:00 +8°C° 0 mm 5 m/s 754 mmHg 89%
    05:00 +8°C° 0 mm 5 m/s 755 mmHg 86%
    06:00 +9°C° 0 mm 5 m/s 755 mmHg 84%
    07:00 +10°C° 0 mm 5 m/s 756 mmHg 82%
    08:00 +11°C° 0 mm 6 m/s 756 mmHg 74%
    09:00 +14°C° 0 mm 7 m/s 756 mmHg 67%
    10:00 +16°C° 0 mm 7 m/s 756 mmHg 59%
    11:00 +16°C° 0 mm 7 m/s 756 mmHg 56%
    12:00 +17°C° 0 mm 7 m/s 756 mmHg 53%
    13:00 +18°C° 0 mm 7 m/s 755 mmHg 50%
    14:00 +18°C° 0 mm 7 m/s 755 mmHg 51%
    15:00 +18°C° 0 mm 8 m/s 755 mmHg 52%
    16:00 +17°C° 0 mm 8 m/s 755 mmHg 53%
    17:00 +16°C° 0 mm 7 m/s 755 mmHg 55%
    18:00 +14°C° 0 mm 7 m/s 755 mmHg 57%
    19:00 +13°C° 0 mm 6 m/s 756 mmHg 59%
    20:00 +11°C° 0 mm 6 m/s 756 mmHg 63%
    21:00 +10°C° 0 mm 6 m/s 757 mmHg 67%
    22:00 +9°C° 0 mm 6 m/s 757 mmHg 71%
    23:00 +8°C° 0 mm 5 m/s 757 mmHg 74%

    21 Octombrie, Sâmbătă

    Timp Temperatura Precipitaţii Vânt Presiune Umiditate
    00:00 +7°C° 0 mm 5 m/s 757 mmHg 78%
    01:00 +7°C° 0 mm 4 m/s 757 mmHg 82%
    02:00 +6°C° 0 mm 4 m/s 757 mmHg 85%
    03:00 +7°C° 0 mm 3 m/s 756 mmHg 87%
    04:00 +5°C° 0 mm 3 m/s 756 mmHg 89%
    05:00 +7°C° 0 mm 3 m/s 756 mmHg 86%
    06:00 +7°C° 0 mm 4 m/s 757 mmHg 82%
    07:00 +8°C° 0 mm 4 m/s 757 mmHg 78%
    08:00 +11°C° 0 mm 4 m/s 756 mmHg 72%
    09:00 +13°C° 0 mm 4 m/s 756 mmHg 65%
    10:00 +15°C° 0 mm 4 m/s 756 mmHg 58%
    11:00 +17°C° 0 mm 4 m/s 755 mmHg 56%
    12:00 +17°C° 0 mm 5 m/s 755 mmHg 54%
    13:00 +19°C° 0 mm 5 m/s 754 mmHg 52%
    14:00 +19°C° 0 mm 5 m/s 753 mmHg 53%
    15:00 +19°C° 0 mm 6 m/s 753 mmHg 54%
    16:00 +19°C° 0 mm 6 m/s 752 mmHg 56%
    17:00 +16°C° 0 mm 6 m/s 752 mmHg 59%
    18:00 +14°C° 0 mm 5 m/s 752 mmHg 63%
    19:00 +12°C° 0 mm 5 m/s 753 mmHg 67%
    20:00 +10°C° 0 mm 5 m/s 753 mmHg 71%
    21:00 +10°C° 0 mm 4 m/s 753 mmHg 75%
    22:00 +8°C° 0 mm 4 m/s 753 mmHg 80%
    23:00 +7°C° 0 mm 4 m/s 753 mmHg 83%

    22 Octombrie, Duminică

    Timp Temperatura Precipitaţii Vânt Presiune Umiditate
    00:00 +7°C° 0 mm 4 m/s 752 mmHg 87%
    01:00 +7°C° 0 mm 3 m/s 752 mmHg 90%
    02:00 +7°C° 0 mm 3 m/s 752 mmHg 92%
    03:00 +7°C° 0 mm 3 m/s 751 mmHg 93%
    04:00 +5°C° 0 mm 3 m/s 751 mmHg 95%
    05:00 +7°C° 0 mm 3 m/s 751 mmHg 91%
    06:00 +8°C° 0 mm 3 m/s 751 mmHg 88%
    07:00 +10°C° 0 mm 4 m/s 752 mmHg 84%
    08:00 +11°C° 0 mm 4 m/s 751 mmHg 77%
    09:00 +13°C° 0 mm 4 m/s 751 mmHg 69%
    10:00 +15°C° 0 mm 5 m/s 751 mmHg 62%
    11:00 +16°C° 0 mm 5 m/s 751 mmHg 61%
    12:00 +17°C° 0 mm 5 m/s 750 mmHg 60%
    13:00 +17°C° 0 mm 5 m/s 750 mmHg 59%
    14:00 +17°C° 0 mm 5 m/s 750 mmHg 61%
    15:00 +17°C° 0 mm 5 m/s 749 mmHg 64%
    16:00 +17°C° 0 mm 5 m/s 749 mmHg 66%
    17:00 +15°C° 0 mm 4 m/s 749 mmHg 72%
    18:00 +14°C° 0 mm 4 m/s 750 mmHg 77%
    19:00 +12°C° 0 mm 3 m/s 750 mmHg 83%
    20:00 +11°C° 0 mm 3 m/s 751 mmHg 87%
    21:00 +10°C° 0 mm 3 m/s 751 mmHg 91%
    22:00 +9°C° 0 mm 3 m/s 751 mmHg 94%
    23:00 +9°C° 0 mm 3 m/s 751 mmHg 95%

    23 Octombrie, Luni

    Timp Temperatura Precipitaţii Vânt Presiune Umiditate
    00:00 +8°C° 0 mm 3 m/s 751 mmHg 95%
    01:00 +8°C° 0 mm 3 m/s 751 mmHg 96%
    02:00 +8°C° 0 mm 3 m/s 751 mmHg 96%
    03:00 +7°C° 0 mm 3 m/s 751 mmHg 96%
    04:00 +7°C° 0 mm 3 m/s 751 mmHg 96%
    05:00 +8°C° 0 mm 3 m/s 751 mmHg 94%
    06:00 +9°C° 0 mm 3 m/s 752 mmHg 92%
    07:00 +10°C° 0 mm 3 m/s 752 mmHg 89%
    08:00 +12°C° 0 mm 3 m/s 752 mmHg 79%
    09:00 +14°C° 0 mm 3 m/s 752 mmHg 70%
    10:00 +18°C° 0 mm 3 m/s 752 mmHg 60%
    11:00 +19°C° 0 mm 3 m/s 751 mmHg 56%
    12:00 +20°C° 0 mm 3 m/s 751 mmHg 52%
    13:00 +21°C° 0 mm 3 m/s 750 mmHg 48%
    14:00 +21°C° 0 mm 3 m/s 750 mmHg 49%
    15:00 +22°C° 0 mm 3 m/s 750 mmHg 51%
    16:00 +22°C° 0 mm 3 m/s 749 mmHg 52%
    17:00 +20°C° 0 mm 3 m/s 750 mmHg 59%
    18:00 +17°C° 0 mm 2 m/s 750 mmHg 67%
    19:00 +15°C° 0 mm 2 m/s 750 mmHg 75%
    20:00 +14°C° 0 mm 2 m/s 751 mmHg 77%
    21:00 +13°C° 0 mm 2 m/s 751 mmHg 80%
    22:00 +12°C° 0 mm 2 m/s 751 mmHg 83%
    23:00 +12°C° 0 mm 2 m/s 751 mmHg 85%
    Arată mai mult